Coolidge Muni, Coolidge, AZ

7:49 PM MST on December 14, 2019 (GMT -0700)
Coolidge Muni, Coolidge

Weather History for KP08 - September, 2019

Change the Weather History Date:

Tuesday, September 3, 2019

  Actual Average (KCGZ) Record (KCGZ)
Temperature  
Mean Temperature 97 °F -  
Max Temperature 105 °F 97 °F 107 °F (2010)
Min Temperature 89 °F 72 °F 64 °F (1999)
Cooling Degree Days 32    
Growing Degree Days 47 (Base 50)    
Moisture  
Dew Point 58 °F    
Average Humidity 27    
Maximum Humidity 38    
Minimum Humidity 17    
Precipitation  
Precipitation 0.00 in - - ()
Sea Level Pressure  
Sea Level Pressure 29.83 in    
Wind  
Wind Speed 6 mph ()    
Max Wind Speed 14 mph    
Max Gust Speed 15 mph    
Visibility 10.0 miles    
Events Thunderstorm    
Averages and records for this station are not official NWS values.
T = Trace of Precipitation, MM = Missing Value Source: Averaged Metar Reports

Daily Weather History Graph

Daily Weather History Graph

Search for Another Location

Airport or City:

Astronomy

Sep. 03, 2019 Rise Set
Actual Time 6:01 AM MST 6:48 PM MST
Civil Twilight 5:36 AM MST 7:13 PM MST
Nautical Twilight 5:06 AM MST 7:42 PM MST
Astronomical Twilight 4:36 AM MST 8:13 PM MST
Moon 10:43 AM MST (9/3) 10:03 PM MST (9/3)
Length of Visible Light 13h 36m
Length of Day
12h 46m
Waxing Crescent, 25% of the Moon is Illuminated
Sep 3
Waxing Crescent
Sep 5
First Quarter
Sep 13
Full
Sep 21
Last Quarter
Sep 28
New

Hourly Weather History & Observations

Time (MST) Temp. Heat Index Dew Point Humidity Pressure Visibility Wind Dir Wind Speed Gust Speed Precip Events Conditions
9:35 AM 91.4 °F 92.1 °F 62.6 °F 38% 29.94 in 10.0 mi SE 3.5 mph - N/A   Clear
9:55 AM 93.2 °F 94.1 °F 62.6 °F 36% 29.94 in 10.0 mi Variable 4.6 mph - N/A   Clear
10:15 AM 93.2 °F 94.1 °F 62.6 °F 36% 29.94 in 10.0 mi Variable 4.6 mph - N/A   Clear
10:35 AM 93.2 °F 94.1 °F 62.6 °F 36% 29.93 in 10.0 mi West 5.8 mph - N/A   Clear
10:55 AM 93.2 °F 94.9 °F 64.4 °F 38% 29.92 in 10.0 mi West 6.9 mph - N/A   Clear
11:15 AM 95.0 °F 96.0 °F 62.6 °F 34% 29.92 in 10.0 mi SW 6.9 mph - N/A   Clear
11:35 AM 95.0 °F 96.0 °F 62.6 °F 34% 29.90 in 10.0 mi Variable 4.6 mph - N/A   Clear
11:55 AM 96.8 °F 98.0 °F 62.6 °F 32% 29.90 in 10.0 mi Variable 5.8 mph 11.5 mph N/A   Clear
12:15 PM 96.8 °F 97.1 °F 60.8 °F 30% 29.89 in 10.0 mi West 9.2 mph - N/A   Clear
12:35 PM 98.6 °F 99.4 °F 60.8 °F 29% 29.87 in 10.0 mi Variable 5.8 mph - N/A   Clear
12:55 PM 98.6 °F 99.4 °F 60.8 °F 29% 29.87 in 10.0 mi Variable 5.8 mph - N/A   Clear
1:15 PM 100.4 °F 101.3 °F 60.8 °F 27% 29.86 in 10.0 mi Variable 4.6 mph 12.7 mph N/A   Clear
1:35 PM 100.4 °F 101.3 °F 60.8 °F 27% 29.84 in 10.0 mi WSW 9.2 mph - N/A   Clear
1:55 PM 102.2 °F 102.4 °F 59.0 °F 24% 29.84 in 10.0 mi WSW 9.2 mph - N/A   Clear
2:15 PM 102.2 °F 101.4 °F 57.2 °F 22% 29.82 in 10.0 mi West 11.5 mph - N/A   Clear
2:35 PM 102.2 °F 101.4 °F 57.2 °F 22% 29.81 in 10.0 mi West 8.1 mph 15.0 mph N/A   Clear
2:55 PM 104.0 °F 103.4 °F 57.2 °F 21% 29.80 in 10.0 mi WSW 8.1 mph - N/A   Clear
3:15 PM 104.0 °F 103.4 °F 57.2 °F 21% 29.79 in 10.0 mi West 12.7 mph - N/A   Clear
3:35 PM 104.0 °F 102.9 °F 55.4 °F 20% 29.78 in 10.0 mi Variable 6.9 mph 15.0 mph N/A   Clear
3:55 PM 105.8 °F 104.3 °F 53.6 °F 18% 29.78 in 10.0 mi NW 10.4 mph - N/A   Clear
4:15 PM 104.0 °F 102.3 °F 53.6 °F 19% 29.77 in 10.0 mi West 13.8 mph - N/A   Clear
4:35 PM 104.0 °F - 51.8 °F 17% 29.76 in 10.0 mi WNW 9.2 mph - N/A   Clear
4:55 PM 104.0 °F - 51.8 °F 17% 29.77 in 10.0 mi West 10.4 mph - N/A   Clear
5:15 PM 104.0 °F - 51.8 °F 17% 29.77 in 10.0 mi West 11.5 mph - N/A   Clear
5:35 PM 104.0 °F - 51.8 °F 17% 29.77 in 10.0 mi West 10.4 mph - N/A   Clear
5:50 PM 104.0 °F - 51.8 °F 17% 29.77 in 10.0 mi West 10.4 mph - N/A   Clear
6:15 PM 102.2 °F 100.4 °F 53.6 °F 20% 29.77 in 10.0 mi West 6.9 mph - N/A   Clear
6:35 PM 100.4 °F 98.8 °F 55.4 °F 22% 29.77 in 10.0 mi West 5.8 mph - N/A   Clear
6:55 PM 98.6 °F 97.2 °F 55.4 °F 24% 29.78 in 10.0 mi West 4.6 mph - N/A   Clear
7:15 PM 96.8 °F 95.8 °F 57.2 °F 27% 29.78 in 10.0 mi Calm Calm - N/A   Clear
7:35 PM 95.0 °F 94.4 °F 59.0 °F 30% 29.79 in 10.0 mi West 4.6 mph - N/A   Clear
7:55 PM 95.0 °F 94.4 °F 59.0 °F 30% 29.80 in 10.0 mi West 4.6 mph - N/A   Clear
8:15 PM 95.0 °F 94.4 °F 59.0 °F 30% 29.81 in 10.0 mi SW 3.5 mph - N/A   Clear
8:35 PM 93.2 °F 92.6 °F 59.0 °F 32% 29.81 in 10.0 mi SW 4.6 mph - N/A   Clear
8:55 PM 93.2 °F 92.6 °F 59.0 °F 32% 29.81 in 10.0 mi SSW 3.5 mph - N/A   Clear
9:15 PM 93.2 °F 93.3 °F 60.8 °F 34% 29.82 in 10.0 mi SE 4.6 mph - N/A Thunderstorm Clear
9:35 PM 95.0 °F 93.0 °F 55.4 °F 26% 29.84 in 10.0 mi ESE 6.9 mph 15.0 mph N/A   Clear
9:55 PM 95.0 °F 92.7 °F 53.6 °F 25% 29.85 in 10.0 mi ENE 4.6 mph - N/A   Clear
10:15 PM 95.0 °F 93.0 °F 55.4 °F 26% 29.84 in 10.0 mi Calm Calm - N/A   Clear
10:35 PM 93.2 °F 91.9 °F 57.2 °F 30% 29.84 in 10.0 mi East 5.8 mph - N/A Thunderstorm Clear
10:55 PM 91.4 °F 89.9 °F 57.2 °F 31% 29.84 in 10.0 mi Calm Calm - N/A   Clear
11:15 PM 91.4 °F 90.7 °F 59.0 °F 34% 29.84 in 10.0 mi SE 6.9 mph - N/A   Clear
11:35 PM 89.6 °F 88.9 °F 59.0 °F 36% 29.83 in 10.0 mi SSE 6.9 mph - N/A   Clear
11:55 PM 89.6 °F 88.1 °F 57.2 °F 33% 29.83 in 10.0 mi SE 8.1 mph - N/A   Clear